Epoch 1996 Apr. 27.0 TT = JDT 2450200.5 T 1996 May 12.90458 TT MPC q 2.1329583 (2000.0) P Q n 0.12983585 Peri. 102.97500 -0.83760344 -0.51123897 a 3.8625397 Node 46.66603 +0.33925001 -0.76299640 e 0.4477835 Incl. 15.34614 +0.42817042 -0.39556441 P 7.59 From 2235 observations 1989 Mar. 14-2012 Apr. 29, mean residual 0".8. Nongravitational parameters A1 = +0.17, A2 = +0.0037.
m1 = 3.5 + 5 logΔ + 28 log r(t - 44)